{"data":{"norad_id":63220,"epoch":"2026-05-24T23:41:09.786048Z","epoch_age_seconds":70197,"freshness":"FRESH","line1":"1 63220U 25052L   26144.98691882  .00005228  00000+0  21780-3 0  9992","line2":"2 63220  97.3995  38.7653 0003657 177.6830 182.4425 15.24147605 66364","mean_motion":15.24147605,"eccentricity":0.0003657,"inclination_deg":97.3995,"raan_deg":38.7653,"arg_perigee_deg":177.683,"mean_anomaly_deg":182.4425,"bstar":0.0002178,"rev_number":6636,"period_min":94.479038334348,"perigee_km":490.83330337097,"apogee_km":495.85910618695,"semimajor_km":6871.483204779,"source":"CELESTRAK","updated_at":"2026-05-25T13:38:03.577613Z"}}